Hourly Data Report for February 01, 2004

SHERBROOKE A
QUEBEC

45°26'00.000" N
71°41'00.000" W
241.40 m
7028124
71610
YSC

Download Data

Hourly Data (February 2004)
Hourly Data Report for February 1, 2004
TIME
LST
Temp Definition
°C
Dew Point Definition
°C
Rel Hum Definition
%
Precip. Amount Definition
mm

Wind Dir Definition
10's deg

Wind Spd Definition
km/h
Visibility Definition
km
Stn Press Definition
kPa
Hmdx Definition


Wind Chill Definition


Weather Definition


00:00 -14.0 -18.5 69   21 6 15.0 98.62   -18  
01:00 -13.8 -18.0 71   22 6 8.0 98.67   -18 Snow
02:00 -13.4 -17.6 71   24 9 6.4 98.77   -19 Snow
03:00 -13.2 -17.4 71   24 7 4.8 98.86   -18 Snow
04:00 -13.0 -17.1 71   26 11 8.0 98.95   -19 Snow
05:00 -13.0 -17.1 71   23 9 3.7 99.02   -18 Snow
06:00 -12.9 -16.9 72   23 6 8.0 99.11   -17 Snow
07:00 -12.9 -16.9 72   23 6 8.0 99.21   -17 Snow
08:00 -12.5 -16.6 71   22 6 12.9 99.38   -16 Snow
09:00 -12.0 -16.5 69   23 13 19.3 99.46   -19 Snow
10:00 -11.4 -16.3 67   22 11 4.8 99.52   -17 Snow
11:00 -10.5 -15.0 69   24 7 2.4 99.60   -15 Snow
12:00 -9.8 -13.9 72   23 9 1.6 99.64   -15 Snow
13:00 -9.0 -13.2 72   25 11 1.6 99.66   -14 Snow
14:00 -8.8 -13.1 71   27 13 4.8 99.70   -15 Snow
15:00 -8.3 -12.3 73   27 11 4.8 99.76   -14 Snow
16:00 -8.2 -11.7 76   27 11 4.8 99.82   -13 Snow
17:00 -8.1 -11.5 76   26 4 16.1 99.84   -10 Freezing Drizzle, Snow
18:00 -8.1 -11.8 75   26 9 15.0 99.90   -13  
19:00 -8.1 -12.5 71   26 7 15.0 99.96   -12  
20:00 -8.4 -12.4 73   27 11 15.0 100.03   -14  
21:00 -8.3 -13.2 68   23 6 15.0 100.09   -12  
22:00 -8.3 -12.4 72     0 15.0 100.13      
23:00 -8.2 -13.0 68   21 4 15.0 100.16   -10  

Notes on Data Quality.

Legend

  • E = Estimated
  • M = Missing
  • NA = Not Available*
  • [empty] = Indicates an unobserved value
Date modified: